Theta_e
303 306 306 307 308 307 307 308 311 311 310 309 309 308 308 306 305 305 305 303 303 301
296 297 299 299 301 301 302 304 304 305 304 303 303 303 302 301 300 300 300 298 297 296
293 294 294 296 296 296 297 299 300 300 300 299 299 299 299 297 296 295 294 294 292 292
292 292 293 292 293 294 294 295 295 295 295 295 295 295 293 292 292 290 289 289 288 287
290 290 290 290 290 291 291 292 292 292 291 291 290 291 290 288 288 288 287 286 286 284
289 288 288 288 289 289 289 289 289 289 289 288 288 288 287 287 285 284 284 283 282 282
287 288 287 287 287 287 288 287 287 287 287 287 286 286 285 285 284 283 283 282 282 281
286 286 286 286 286 286 285 285 286 286 286 286 285 284 283 283 282 282 281 281 281 281
284 284 284 284 284 284 284 285 285 284 285 284 285 286 285 283 281 280 279 278 278 279
282 282 282 282 282 281 282 282 282 283 283 283 284 285 284 282 279 278 278 277 277 277
281 281 281 281 280 280 280 280 280 280 281 281 282 284 283 281 279 278 278 278 278 277
280 280 280 279 279 279 279 279 279 280 280 280 281 284 283 281 279 278 277 278 278 278
280 279 278 278 278 279 279 279 279 279 279 278 280 284 283 281 280 278 278 278 278 280
279 279 279 278 278 278 278 278 277 277 277 278 278 280 283 282 279 278 277 277 277 278
Wind_Speed
10 5 5 6 6 3 4 4 5 7 6 6 5 6 5 4 4 4 4 6 4 3
11 11 8 7 6 5 5 5 6 7 7 7 7 6 6 4 5 6 4 5 4 3
8 10 9 6 8 9 7 5 7 8 7 7 8 7 5 6 5 7 4 4 5 4
7 9 10 10 8 6 8 7 9 9 8 7 8 7 8 5 7 9 6 6 6 6
9 10 11 8 8 7 4 8 9 8 8 7 8 6 8 6 6 8 8 6 6 7
8 10 9 8 7 5 7 9 9 8 8 7 8 8 8 7 8 9 8 8 8 6
7 8 7 7 6 7 7 7 8 7 7 6 9 8 8 8 9 9 9 8 8 6
5 6 7 8 8 7 7 7 6 7 8 9 8 5 7 8 8 9 9 8 8 8
7 7 7 8 7 6 6 7 8 9 9 9 7 13 13 9 8 8 8 8 6 6
5 6 6 6 7 5 6 7 9 9 9 9 7 13 13 12 7 7 6 6 5 5
5 6 5 6 5 6 6 7 6 6 6 7 7 13 13 12 6 6 6 5 4 5
4 5 5 5 6 5 5 6 5 4 5 6 6 11 11 8 5 6 5 5 4 4
4 5 5 5 5 3 3 5 4 5 4 4 5 8 8 6 3 4 3 3 4 5
4 5 4 4 2 4 4 4 4 5 4 4 4 3 5 5 2 2 3 2 2 1
Wind_Direction
53 48 80 105 97 56 92 74 62 80 76 76 82 83 69 77 77 65 60 82 76 82
39 43 46 74 85 87 56 74 76 81 95 80 70 74 86 85 86 78 68 80 83 85
63 48 35 55 62 67 69 56 68 75 76 74 79 71 78 94 85 96 69 72 86 68
54 68 56 42 30 58 67 51 64 63 58 68 80 76 74 67 95 91 85 63 65 56
31 59 60 53 22 30 50 75 77 73 70 64 68 74 86 77 73 81 76 67 64 53
52 56 51 51 36 27 45 57 54 65 71 72 81 76 72 80 78 73 71 67 64 51
61 66 69 65 48 41 39 63 71 69 77 84 76 75 78 83 81 81 71 69 66 71
66 91 84 70 58 40 40 49 57 82 79 71 69 78 89 89 91 91 85 72 64 56
57 52 60 74 69 58 57 59 66 60 64 66 75 88 93 93 91 87 88 85 68 60
69 71 64 70 79 73 67 70 64 62 70 72 75 88 88 84 79 81 74 76 80 76
75 77 73 81 81 81 79 76 72 74 75 89 91 94 95 92 86 89 85 87 87 88
85 85 85 83 83 78 78 79 78 77 87 94 97 108 110 104 95 90 84 85 79 86
105 102 100 105 96 84 89 107 95 88 74 91 101 110 110 109 109 116 115 95 99 100
92 102 106 98 89 104 99 87 85 90 64 61 55 90 121 124 121 131 146 158 158 136